[[{"header":{"parameterUnit":"m.s-1","parameterCategory":2,"la1":30.2992,"la2":30.254,"lo1":-89.0895,"lo2":-89.0443,"dy":0.0025,"dx":0.0025,"nx":19,"ny":19,"refTime":"2026-04-30T21:00:00:Z","depth":"0","parameterNumber":2,"parameterNumberName":"U-component_of_CURRENTS"},"data":[0,0,0,-0.1227,-0.1227,-0.1199,-0.1199,-0.1145,-0.1144,0,0,0,0,0,0,0,0,0,0,0,-0.1233,-0.1232,-0.1227,-0.1227,-0.12,-0.1199,-0.1145,-0.1144,0,0,0,0,0,0,0,0,0,0,0,-0.1233,-0.1233,-0.1232,-0.1226,-0.12,-0.1199,-0.1145,-0.117,0,0,0,0,0,0,0,0,0,0,-0.1198,-0.1207,-0.1233,-0.1232,-0.1226,-0.12,-0.1199,-0.1171,-0.1168,-0.1152,0,-0.1147,0,-0.1146,-0.114,-0.114,0,0,0,-0.1224,-0.1209,-0.1203,-0.1232,-0.1226,-0.12,-0.1211,-0.117,-0.1166,-0.1148,-0.1146,-0.1144,-0.1145,-0.114,-0.114,-0.108,-0.108,0,0,-0.1225,-0.1226,-0.1206,-0.1201,-0.1217,-0.1212,-0.121,-0.1168,-0.1162,-0.1146,-0.1143,-0.1145,-0.114,-0.1139,-0.108,-0.108,0,0,0,-0.1231,-0.1227,-0.1222,-0.1203,-0.1201,-0.1211,-0.1209,-0.1164,-0.1162,-0.1143,-0.1144,-0.1139,-0.1139,-0.1081,-0.108,-0.1097,0,0,0,-0.1232,-0.1231,-0.1223,-0.1223,-0.1202,-0.1185,-0.1206,-0.1165,-0.1161,-0.1144,-0.1139,-0.1138,-0.1081,-0.1081,-0.1097,-0.1135,0,0,0,-0.1234,-0.1231,-0.1228,-0.1223,-0.1213,-0.1186,-0.1182,-0.1164,-0.1161,-0.114,-0.1138,-0.1081,-0.1081,-0.1097,-0.1134,-0.1162,0,0,0,-0.1236,-0.1221,-0.1227,-0.1212,-0.1213,-0.1191,-0.1182,-0.1163,-0.1145,-0.1139,-0.1081,-0.108,-0.1097,-0.1133,-0.1161,-0.1014,-0.1008,0,0,-0.1217,-0.1218,-0.121,-0.1215,-0.1199,-0.1195,-0.1172,-0.1148,-0.113,-0.1094,-0.1092,-0.1097,-0.1134,-0.1162,-0.0984,-0.0978,0,0,0,-0.1204,-0.1199,-0.1194,-0.1188,-0.1178,-0.1179,-0.1153,-0.1138,-0.111,-0.1118,-0.1081,-0.1105,-0.1122,-0.103,-0.1025,-0.0861,-0.1078,-0.1078,-0.1078,-0.1177,-0.1181,-0.1171,-0.1176,-0.1169,-0.1157,-0.1154,-0.1129,-0.1101,-0.109,-0.1105,-0.1124,-0.1023,-0.1018,-0.0851,-0.1073,-0.1073,-0.1073,-0.1073,-0.1157,-0.1155,-0.1167,-0.1161,-0.117,-0.1157,-0.1149,-0.1138,-0.1136,-0.1105,-0.1119,-0.1035,-0.1014,-0.0837,-0.1074,-0.1074,-0.1074,-0.1074,-0.1074,-0.114,-0.1142,-0.1148,-0.1167,-0.1177,-0.1179,-0.1191,-0.119,-0.1168,-0.1184,-0.1083,-0.108,-0.0939,-0.1183,-0.1184,-0.1184,-0.1184,-0.1184,-0.1185,-0.1126,-0.1133,-0.1155,-0.1185,-0.1198,-0.1224,-0.1235,-0.1229,-0.1168,-0.111,-0.1108,-0.0902,-0.1158,-0.1171,-0.1189,-0.1188,-0.1188,-0.1187,-0.1187,-0.1084,-0.113,-0.1143,-0.1165,-0.1202,-0.1141,-0.1214,-0.1106,-0.1127,-0.1056,-0.0796,-0.1061,-0.1052,-0.1052,-0.1061,-0.1051,-0.1051,-0.1051,-0.1051,-0.1069,-0.1095,-0.1085,-0.1092,-0.1114,-0.1083,-0.0909,-0.0816,-0.0688,-0.0578,-0.065,-0.0544,-0.0557,-0.0515,-0.0528,-0.0525,-0.0379,-0.0378,-0.0377,-0.1037,-0.1047,-0.0987,-0.1007,-0.1019,-0.0937,-0.0652,-0.0411,-0.0295,-0.034,-0.0456,-0.0484,-0.0322,-0.0355,-0.0285,-0.0315,-0.031,0,0]},{"header":{"parameterUnit":"m.s-1","parameterCategory":2,"la1":30.2992,"la2":30.254,"lo1":-89.0895,"lo2":-89.0443,"dy":0.0025,"dx":0.0025,"nx":19,"ny":19,"refTime":"2026-04-30T21:00:00:Z","depth":"0","parameterNumber":3,"parameterNumberName":"V-component_of_CURRENTS"},"data":[0,0,0,-0.0626,-0.0626,-0.0629,-0.0629,-0.0604,-0.0604,0,0,0,0,0,0,0,0,0,0,0,-0.0622,-0.0622,-0.0626,-0.0626,-0.0629,-0.0629,-0.0604,-0.0604,0,0,0,0,0,0,0,0,0,0,0,-0.0622,-0.0622,-0.0622,-0.0626,-0.0629,-0.0629,-0.0604,-0.0608,0,0,0,0,0,0,0,0,0,0,-0.0608,-0.0609,-0.0622,-0.0622,-0.0626,-0.0629,-0.0629,-0.0608,-0.0607,-0.0596,0,-0.0599,0,-0.0604,-0.0602,-0.0602,0,0,0,-0.0621,-0.061,-0.0613,-0.0622,-0.0626,-0.0629,-0.0626,-0.0608,-0.0607,-0.0595,-0.0599,-0.0598,-0.0603,-0.0602,-0.0602,-0.0644,-0.0644,0,0,-0.0621,-0.0618,-0.0614,-0.0613,-0.063,-0.0626,-0.0626,-0.0608,-0.0606,-0.0599,-0.0598,-0.0603,-0.0601,-0.0601,-0.0643,-0.0644,0,0,0,-0.0624,-0.0618,-0.0623,-0.0614,-0.0618,-0.0626,-0.0627,-0.0606,-0.0609,-0.0598,-0.0603,-0.0601,-0.0601,-0.0642,-0.0643,-0.0739,0,0,0,-0.0623,-0.062,-0.0623,-0.0621,-0.0619,-0.0616,-0.0626,-0.061,-0.0608,-0.0603,-0.0601,-0.0601,-0.0642,-0.0643,-0.0734,-0.0816,0,0,0,-0.0622,-0.062,-0.0622,-0.0621,-0.0625,-0.0617,-0.0618,-0.061,-0.0611,-0.0602,-0.0601,-0.0641,-0.0643,-0.0731,-0.0808,-0.0785,0,0,0,-0.0616,-0.0626,-0.0622,-0.0637,-0.0625,-0.0647,-0.0618,-0.062,-0.0615,-0.0601,-0.0642,-0.0643,-0.073,-0.0804,-0.0781,-0.057,-0.0569,0,0,-0.0628,-0.0627,-0.0638,-0.0635,-0.0676,-0.0646,-0.0697,-0.067,-0.0638,-0.0643,-0.0644,-0.0736,-0.0808,-0.0784,-0.0662,-0.0658,0,0,0,-0.0641,-0.0659,-0.0665,-0.0691,-0.0695,-0.0747,-0.0714,-0.0716,-0.0733,-0.0644,-0.0742,-0.0785,-0.0766,-0.0631,-0.0629,-0.054,-0.0651,-0.0651,-0.065,-0.0663,-0.0684,-0.0734,-0.0771,-0.0792,-0.0811,-0.0852,-0.0857,-0.0786,-0.0818,-0.0865,-0.0925,-0.0784,-0.0779,-0.0694,-0.0846,-0.0846,-0.0847,-0.0847,-0.0731,-0.078,-0.0821,-0.0882,-0.093,-0.0976,-0.1013,-0.0992,-0.1023,-0.0972,-0.0945,-0.0744,-0.0782,-0.0691,-0.0853,-0.0852,-0.0851,-0.0851,-0.085,-0.0775,-0.081,-0.0854,-0.097,-0.1064,-0.1099,-0.1142,-0.1164,-0.1128,-0.115,-0.0894,-0.0888,-0.08,-0.1078,-0.1078,-0.1078,-0.1079,-0.1079,-0.1079,-0.081,-0.0862,-0.095,-0.1072,-0.1126,-0.1192,-0.1219,-0.1184,-0.1072,-0.1008,-0.1003,-0.0805,-0.0995,-0.0976,-0.1083,-0.1083,-0.1082,-0.1082,-0.1081,-0.0859,-0.0903,-0.1008,-0.1074,-0.117,-0.1115,-0.1156,-0.0959,-0.094,-0.0831,-0.0698,-0.0892,-0.0831,-0.0829,-0.0805,-0.0862,-0.0862,-0.0862,-0.0862,-0.0883,-0.0925,-0.1009,-0.1064,-0.1095,-0.1057,-0.0788,-0.0634,-0.0527,-0.0476,-0.0566,-0.046,-0.0473,-0.0388,-0.0395,-0.0362,-0.0305,-0.0305,-0.0304,-0.0909,-0.0939,-0.0954,-0.1015,-0.1022,-0.0885,-0.055,-0.0242,-0.0178,-0.0284,-0.05,-0.0523,-0.0376,-0.0402,-0.027,-0.0288,-0.0232,0,0]}],[{"header":{"parameterUnit":"m.s-1","parameterCategory":2,"la1":30.2992,"la2":30.254,"lo1":-89.0895,"lo2":-89.0443,"dy":0.0025,"dx":0.0025,"nx":19,"ny":19,"refTime":"2026-04-30T21:00:00:Z","depth":"2","parameterNumber":2,"parameterNumberName":"U-component_of_CURRENTS"},"data":[0,0,0,-0.1106,-0.1105,-0.1081,-0.1081,-0.1027,-0.1026,0,0,0,0,0,0,0,0,0,0,0,-0.1111,-0.1111,-0.1106,-0.1105,-0.1081,-0.1081,-0.1027,-0.1026,0,0,0,0,0,0,0,0,0,0,0,-0.1111,-0.1111,-0.1111,-0.1105,-0.1081,-0.1081,-0.1027,-0.105,0,0,0,0,0,0,0,0,0,0,-0.1076,-0.1086,-0.1111,-0.1111,-0.1105,-0.1081,-0.1081,-0.1051,-0.1049,-0.1032,0,-0.1028,0,-0.1027,-0.1022,-0.1022,0,0,0,-0.1102,-0.1088,-0.1082,-0.1111,-0.1105,-0.1081,-0.1091,-0.105,-0.1047,-0.1028,-0.1027,-0.1025,-0.1027,-0.1022,-0.1021,-0.0954,-0.0954,0,0,-0.1103,-0.1105,-0.1085,-0.108,-0.1098,-0.1092,-0.1091,-0.1048,-0.1043,-0.1027,-0.1024,-0.1026,-0.1021,-0.1021,-0.0955,-0.0954,0,0,0,-0.1109,-0.1106,-0.1101,-0.1082,-0.1081,-0.1091,-0.109,-0.1045,-0.1044,-0.1023,-0.1025,-0.1021,-0.102,-0.0955,-0.0955,-0.0966,0,0,0,-0.111,-0.111,-0.1102,-0.1102,-0.1082,-0.1066,-0.1088,-0.1047,-0.1042,-0.1025,-0.1021,-0.102,-0.0955,-0.0955,-0.0966,-0.097,0,0,0,-0.1112,-0.111,-0.1107,-0.1103,-0.1094,-0.1067,-0.1063,-0.1046,-0.1043,-0.1022,-0.102,-0.0956,-0.0955,-0.0966,-0.097,-0.1019,0,0,0,-0.1115,-0.11,-0.1107,-0.1092,-0.1095,-0.1071,-0.1064,-0.1045,-0.1027,-0.1021,-0.0955,-0.0955,-0.0966,-0.0971,-0.1018,-0.0855,-0.0845,0,0,-0.1097,-0.1098,-0.1089,-0.1095,-0.1076,-0.1074,-0.1048,-0.1026,-0.1009,-0.0968,-0.0966,-0.0966,-0.097,-0.1018,-0.0814,-0.0805,0,0,0,-0.1084,-0.1078,-0.1073,-0.1066,-0.1054,-0.1044,-0.1028,-0.1012,-0.098,-0.0996,-0.0948,-0.095,-0.0981,-0.088,-0.0873,-0.0951,-0.0951,-0.0951,-0.0951,-0.106,-0.1061,-0.1045,-0.1045,-0.1034,-0.1018,-0.0993,-0.0965,-0.0967,-0.0953,-0.0946,-0.097,-0.0859,-0.0853,-0.0931,-0.0931,-0.0931,-0.0931,-0.0931,-0.1036,-0.1027,-0.103,-0.1017,-0.1013,-0.0997,-0.0964,-0.0958,-0.0944,-0.0934,-0.0965,-0.0878,-0.0845,-0.0932,-0.0932,-0.0932,-0.0932,-0.0932,-0.0932,-0.102,-0.1016,-0.1015,-0.1011,-0.1003,-0.1,-0.0986,-0.0981,-0.0957,-0.0958,-0.0903,-0.0901,-0.1006,-0.1013,-0.1014,-0.1014,-0.1014,-0.1014,-0.1014,-0.1006,-0.1004,-0.1015,-0.1014,-0.1021,-0.1036,-0.103,-0.1011,-0.096,-0.0898,-0.0897,-0.0998,-0.0996,-0.1011,-0.1018,-0.1017,-0.1017,-0.1016,-0.1016,-0.097,-0.0999,-0.0999,-0.1013,-0.1029,-0.0958,-0.1018,-0.0895,-0.0913,-0.0834,-0.0856,-0.0858,-0.0848,-0.0851,-0.0861,-0.083,-0.083,-0.083,-0.083,-0.0957,-0.0971,-0.0954,-0.0954,-0.0957,-0.0909,-0.073,-0.0614,-0.0599,-0.057,-0.0582,-0.0499,-0.0512,-0.048,-0.0491,-0.0494,-0.0367,-0.0367,-0.0366,-0.0929,-0.0931,-0.0878,-0.0877,-0.0874,-0.078,-0.0486,-0.0228,-0.0194,-0.0352,-0.054,-0.0791,-0.0698,-0.0707,-0.0681,-0.069,-0.0702,0,0]},{"header":{"parameterUnit":"m.s-1","parameterCategory":2,"la1":30.2992,"la2":30.254,"lo1":-89.0895,"lo2":-89.0443,"dy":0.0025,"dx":0.0025,"nx":19,"ny":19,"refTime":"2026-04-30T21:00:00:Z","depth":"2","parameterNumber":3,"parameterNumberName":"V-component_of_CURRENTS"},"data":[0,0,0,-0.0493,-0.0493,-0.05,-0.0499,-0.047,-0.047,0,0,0,0,0,0,0,0,0,0,0,-0.0488,-0.0488,-0.0493,-0.0493,-0.05,-0.0499,-0.047,-0.047,0,0,0,0,0,0,0,0,0,0,0,-0.0488,-0.0488,-0.0488,-0.0493,-0.05,-0.0499,-0.047,-0.0473,0,0,0,0,0,0,0,0,0,0,-0.0471,-0.0474,-0.0488,-0.0488,-0.0493,-0.05,-0.0499,-0.0474,-0.0473,-0.0458,0,-0.0463,0,-0.0468,-0.0467,-0.0467,0,0,0,-0.0487,-0.0474,-0.0478,-0.0488,-0.0493,-0.05,-0.0495,-0.0473,-0.0473,-0.0457,-0.0463,-0.0462,-0.0468,-0.0467,-0.0467,-0.0476,-0.0477,0,0,-0.0487,-0.0485,-0.0479,-0.0478,-0.0499,-0.0495,-0.0495,-0.0473,-0.0472,-0.0462,-0.0461,-0.0467,-0.0467,-0.0467,-0.0476,-0.0477,0,0,0,-0.049,-0.0485,-0.049,-0.0479,-0.0485,-0.0495,-0.0496,-0.0473,-0.0475,-0.0461,-0.0467,-0.0467,-0.0466,-0.0476,-0.0476,-0.0532,0,0,0,-0.0489,-0.0487,-0.049,-0.0488,-0.0485,-0.0484,-0.0496,-0.0477,-0.0475,-0.0467,-0.0467,-0.0466,-0.0475,-0.0476,-0.0529,-0.0528,0,0,0,-0.0487,-0.0487,-0.049,-0.0488,-0.0495,-0.0485,-0.0486,-0.0477,-0.0478,-0.0467,-0.0466,-0.0475,-0.0476,-0.0527,-0.0525,-0.0528,0,0,0,-0.0482,-0.049,-0.049,-0.05,-0.0495,-0.0506,-0.0486,-0.0486,-0.0479,-0.0466,-0.0475,-0.0476,-0.0526,-0.0524,-0.0527,-0.0362,-0.0356,0,0,-0.0489,-0.049,-0.0497,-0.0498,-0.052,-0.0504,-0.0531,-0.0511,-0.0488,-0.0477,-0.0478,-0.053,-0.0525,-0.0528,-0.0412,-0.0404,0,0,0,-0.0498,-0.0509,-0.0512,-0.0527,-0.053,-0.0543,-0.0538,-0.0538,-0.0539,-0.0489,-0.0532,-0.0526,-0.0527,-0.0425,-0.0419,-0.048,-0.048,-0.048,-0.048,-0.051,-0.0521,-0.0545,-0.0567,-0.0575,-0.0575,-0.0553,-0.0549,-0.0568,-0.0585,-0.0575,-0.0615,-0.0508,-0.0501,-0.059,-0.0591,-0.0591,-0.0591,-0.0591,-0.0543,-0.0568,-0.0584,-0.0618,-0.0628,-0.0654,-0.0624,-0.0616,-0.0609,-0.0634,-0.0632,-0.0491,-0.0497,-0.0596,-0.0595,-0.0594,-0.0594,-0.0593,-0.0593,-0.0566,-0.0584,-0.0608,-0.0658,-0.0688,-0.0709,-0.0673,-0.0673,-0.0652,-0.0624,-0.0545,-0.0541,-0.0627,-0.0681,-0.0681,-0.0681,-0.0681,-0.0681,-0.0681,-0.0587,-0.061,-0.0664,-0.07,-0.0729,-0.0753,-0.0733,-0.0677,-0.0622,-0.0568,-0.0566,-0.0644,-0.0641,-0.0631,-0.0682,-0.0682,-0.0682,-0.0682,-0.0682,-0.0618,-0.0639,-0.0698,-0.0734,-0.0765,-0.0694,-0.0701,-0.0535,-0.0509,-0.0415,-0.0494,-0.0498,-0.0453,-0.0455,-0.0439,-0.0437,-0.0437,-0.0437,-0.0437,-0.0638,-0.0656,-0.0718,-0.0745,-0.0735,-0.0664,-0.0465,-0.031,-0.0256,-0.0243,-0.0253,-0.0205,-0.0217,-0.0157,-0.0166,-0.0144,-0.0066,-0.0066,-0.0066,-0.0657,-0.0679,-0.0697,-0.0725,-0.07,-0.0579,-0.0313,-0.0068,0.0016,-0.0058,-0.0256,-0.0399,-0.035,-0.0362,-0.0286,-0.0294,-0.0264,0,0]}],[{"header":{"parameterUnit":"m.s-1","parameterCategory":2,"la1":30.2992,"la2":30.254,"lo1":-89.0895,"lo2":-89.0443,"dy":0.0025,"dx":0.0025,"nx":19,"ny":19,"refTime":"2026-04-30T21:00:00:Z","depth":"4","parameterNumber":2,"parameterNumberName":"U-component_of_CURRENTS"},"data":[0,0,0,-0.0832,-0.0833,-0.0852,-0.0852,-0.0815,-0.0815,0,0,0,0,0,0,0,0,0,0,0,-0.0827,-0.0827,-0.0832,-0.0833,-0.0852,-0.0852,-0.0815,-0.0815,0,0,0,0,0,0,0,0,0,0,0,-0.0827,-0.0827,-0.0827,-0.0833,-0.0852,-0.0852,-0.0815,-0.0815,0,0,0,0,0,0,0,0,0,0,-0.0804,-0.0813,-0.0827,-0.0827,-0.0833,-0.0852,-0.0852,-0.0816,-0.0815,-0.0789,0,-0.0798,0,-0.0804,-0.0811,-0.0811,0,0,0,-0.083,-0.0814,-0.0815,-0.0828,-0.0833,-0.0852,-0.0842,-0.0816,-0.0815,-0.0788,-0.0798,-0.0797,-0.0804,-0.0811,-0.081,-0.0686,-0.0686,0,0,-0.0829,-0.0831,-0.0816,-0.0815,-0.0844,-0.0842,-0.0843,-0.0816,-0.0818,-0.0798,-0.0796,-0.0803,-0.081,-0.081,-0.0687,-0.0686,0,0,0,-0.0828,-0.083,-0.0834,-0.0816,-0.0824,-0.0843,-0.0844,-0.082,-0.082,-0.0796,-0.0803,-0.081,-0.0809,-0.0688,-0.0687,-0.0679,0,0,0,-0.0827,-0.083,-0.0833,-0.0835,-0.0825,-0.0832,-0.0848,-0.0822,-0.0819,-0.0803,-0.081,-0.0809,-0.0689,-0.0688,-0.0682,-0.0703,0,0,0,-0.0825,-0.083,-0.0833,-0.0835,-0.0844,-0.0833,-0.0832,-0.0822,-0.0823,-0.0811,-0.0809,-0.069,-0.0688,-0.0684,-0.0706,-0.0716,0,0,0,-0.0824,-0.082,-0.0834,-0.0828,-0.0844,-0.082,-0.0832,-0.0826,-0.0816,-0.081,-0.0689,-0.0687,-0.0685,-0.0707,-0.0717,-0.0628,0,0,0,-0.0813,-0.0819,-0.0813,-0.0825,-0.0797,-0.0817,-0.076,-0.0766,-0.0765,-0.0696,-0.0694,-0.0681,-0.0706,-0.0717,-0.0494,0,0,0,0,-0.0804,-0.0797,-0.0792,-0.0783,-0.0774,-0.0743,-0.0738,-0.0721,-0.0682,-0.0749,-0.0637,-0.0652,-0.066,-0.0607,-0.0676,-0.0676,-0.0677,-0.0677,-0.0677,-0.078,-0.0772,-0.0744,-0.0723,-0.0708,-0.0682,-0.066,-0.0625,-0.0629,-0.0601,-0.0612,-0.0571,-0.0507,-0.056,-0.0559,-0.0559,-0.0559,-0.0559,-0.0559,-0.0734,-0.0711,-0.0696,-0.067,-0.0642,-0.0601,-0.0558,-0.0564,-0.0541,-0.0541,-0.0549,-0.0558,-0.0557,-0.0558,-0.0558,-0.0558,-0.0558,-0.0558,-0.0558,-0.0707,-0.069,-0.0682,-0.0641,-0.0607,-0.0575,-0.056,-0.055,-0.0543,-0.0555,-0.0516,-0.0573,-0.0615,-0.0568,-0.0568,-0.0568,-0.0568,-0.0568,-0.0568,-0.0683,-0.0667,-0.065,-0.0616,-0.0612,-0.0603,-0.0582,-0.0563,-0.0552,-0.0506,-0.0572,-0.0575,-0.0575,-0.0614,-0.057,-0.057,-0.057,-0.0569,-0.0569,-0.0648,-0.0657,-0.0628,-0.0625,-0.0614,-0.0597,-0.0607,-0.0516,-0.0502,-0.0455,-0.0471,-0.0476,-0.0483,-0.0486,-0.0524,-0.0451,-0.045,-0.0449,0,-0.0639,-0.0631,-0.0608,-0.0601,-0.0585,-0.0589,-0.0519,-0.0485,-0.044,-0.0429,-0.0526,-0.0549,-0.0549,-0.0564,-0.0564,-0.061,0,0,0,-0.0622,-0.061,-0.0591,-0.0572,-0.0556,-0.0493,-0.049,-0.0435,-0.0469,-0.0364,-0.0417,-0.0425,-0.0503,-0.0575,-0.0598,-0.0598,-0.0664,0,0]},{"header":{"parameterUnit":"m.s-1","parameterCategory":2,"la1":30.2992,"la2":30.254,"lo1":-89.0895,"lo2":-89.0443,"dy":0.0025,"dx":0.0025,"nx":19,"ny":19,"refTime":"2026-04-30T21:00:00:Z","depth":"4","parameterNumber":3,"parameterNumberName":"V-component_of_CURRENTS"},"data":[0,0,0,-0.0316,-0.0317,-0.034,-0.034,-0.0307,-0.0306,0,0,0,0,0,0,0,0,0,0,0,-0.0308,-0.0308,-0.0316,-0.0317,-0.034,-0.034,-0.0307,-0.0306,0,0,0,0,0,0,0,0,0,0,0,-0.0308,-0.0308,-0.0308,-0.0317,-0.034,-0.034,-0.0307,-0.0304,0,0,0,0,0,0,0,0,0,0,-0.0289,-0.0294,-0.0308,-0.0308,-0.0317,-0.034,-0.034,-0.0304,-0.0304,-0.028,0,-0.029,0,-0.0298,-0.0303,-0.0303,0,0,0,-0.0312,-0.0294,-0.0299,-0.0308,-0.0318,-0.034,-0.0328,-0.0305,-0.0304,-0.0279,-0.0289,-0.0289,-0.0298,-0.0303,-0.0303,-0.0169,-0.0168,0,0,-0.031,-0.031,-0.03,-0.03,-0.033,-0.0327,-0.0329,-0.0305,-0.0306,-0.0289,-0.0288,-0.0297,-0.0303,-0.0302,-0.017,-0.0169,0,0,0,-0.031,-0.0309,-0.0316,-0.03,-0.031,-0.0328,-0.033,-0.0307,-0.031,-0.0288,-0.0297,-0.0302,-0.0302,-0.0171,-0.0169,-0.0108,0,0,0,-0.0309,-0.0309,-0.0315,-0.0315,-0.0311,-0.0318,-0.0333,-0.0311,-0.0309,-0.0297,-0.0302,-0.0301,-0.0172,-0.017,-0.0112,-0.0071,0,0,0,-0.0306,-0.0309,-0.0313,-0.0315,-0.0327,-0.0319,-0.0321,-0.0311,-0.0314,-0.0303,-0.0301,-0.0173,-0.0171,-0.0116,-0.0078,-0.0067,0,0,0,-0.03,-0.0304,-0.0314,-0.0315,-0.0327,-0.0304,-0.0321,-0.0319,-0.031,-0.0302,-0.0172,-0.017,-0.0117,-0.0082,-0.007,-0.0154,0,0,0,-0.0299,-0.0304,-0.0303,-0.0312,-0.0276,-0.0301,-0.0215,-0.0226,-0.0252,-0.0178,-0.0176,-0.0111,-0.0078,-0.0068,0.0003,0,0,0,0,-0.0297,-0.0285,-0.0282,-0.0264,-0.0257,-0.0177,-0.0187,-0.0167,-0.0124,-0.0235,-0.0074,-0.0054,-0.0051,-0.0107,-0.0157,-0.0157,-0.0157,-0.0158,-0.0158,-0.027,-0.0257,-0.0211,-0.017,-0.0143,-0.0087,-0.0029,0.0012,-0.0044,-0.0007,0.0022,0.0113,0.0061,0.0045,0.0045,0.0045,0.0046,0.0046,0.0046,-0.0207,-0.017,-0.0117,-0.0071,0.0008,0.0076,0.0166,0.0149,0.0203,0.0146,0.0144,-0.0003,0.0053,0.0052,0.0051,0.005,0.0049,0.0049,0.0048,-0.0172,-0.0145,-0.0109,-0.0007,0.0092,0.0164,0.0228,0.0271,0.0264,0.028,0.0158,0.0158,0.0119,0.0235,0.0235,0.0236,0.0236,0.0236,0.0236,-0.0156,-0.0106,-0.0059,0.0051,0.0084,0.0151,0.0238,0.0259,0.0286,0.0242,0.0267,0.0177,0.017,0.0131,0.024,0.024,0.0239,0.0239,0.0238,-0.0143,-0.0125,-0.0071,-0.0035,0.0046,0.0097,0.0183,0.0231,0.0246,0.025,0.0218,0.0218,0.0182,0.0175,0.0133,0.0248,0.0247,0.0246,0,-0.0159,-0.0127,-0.0119,-0.0101,-0.005,0.0037,0.0063,0.0112,0.0176,0.0156,0.0215,0.0175,0.0175,0.0127,0.012,0.0068,0,0,0,-0.0164,-0.0163,-0.0192,-0.0164,-0.0123,-0.0024,0.006,0.0062,0.0179,0.0201,0.0229,0.0234,0.0217,0.0253,0.0195,0.0188,0.0121,0,0]}]]